EHI
0 0 0 0 0 0 0 0 0 0 0 0 0 0 0 0 0 0 0 0 0 0 0 0 0 0 0 0 0 0 0 0 0 0 0 0 0 0 0 0 0 0 0 0
0 0 0 0 0 0 0 0 0 0 0 0 0 0 0 0 0 0 0 0 0 0 0 0 0 0 0 0 0 0 0 0 0 0 0 0 0 0 0 0 0 0 0 0
0 0 0 0 0 0 0 0 0 0 0 0 0 0 0 0 0 0 0 0 0 0 0 0 0 0 0 0 0 0 0 0 0 0 0 0 0 0 0 0 0 0 0 0
0 0 0 0 0 0 0 0 0 0 0 0 0 0 0 0 0 0 0 0 0 0 0 0 0 0 0 0 0 0 0 0 0 0 0 0 0 0 0 0 0 0 0 0
0 0 0 0 0 0 0 0 0 0 0 0 0 0 0 0 0 0 0 0 0 0 0 0 0 0 0 0 0 0 0 0 0 0 0 0 0 0 0 0 0 0 0 0
0 0 0 0 0 0 0 0 0 0 0 0 0 0 0 0 0 0 0 0 0 0 0 0 0 0 0 0 0 0 0 0 0 0 0 0 0 0 0 0 0 0 0 0
0 0 0 0 0 0 0 0 0 0 0 0 0 0 0 0 0 0 0 0 0 0 0 0 0 0 0 0 0 0 0 0 0 0 0 0 0 0 0 0 0 0 0 0
0 0 0 0 0 0 0 0 0 0 0 0 0 0 0 0 0 0 0 0 0 0 0 0 0 0 0 0 0 0 0 0 0 0 0 0 0 0 0 0 0 0 0 0
0 0 0 0 0 0 0 0 0 0 0 0 0 0 0 0 0 0 0 0 0 0 0 0 0 0 0 0 0 0 0 0 0 0 0 0 0 0 0 0 0 0 0 0
0 0 0 0 0 0 0 0 0 0 0 0 0 0 0 0 0 0 0 0 0 0 0 0 0 0 0 0 0 0 0 0 0 0 0 0 0 0 0 0 0 0 0 0
0 0 0 0 0 0 0 0 0 0 0 0 0 0 0 0 0 0 0 0 0 0 0 0 0 0 0 0 0 0 0 0 0 0 0 0 0 0 0 0 0 0 0 0
0 0 0 0 0 0 0 0 0 0 0 0 0 0 0 0 0 0 0 0 0 0 0 0 0 0 0 0 0 0 0 0 0 0 0 0 0 0 0 0 0 0 0 0
0 0 0 0 0 0 0 0 0 0 0 0 0 0 0 0 0 0 0 0 0 0 0 0 0 0 0 0 0 0 0 0 0 0 0 0 0 0 0 0 0 0 0 0
0 0 0 0 0 0 0 0 0 0 0 0 0 0 0 0 0 0 0 0 0 0 0 0 0 0 0 0 0 0 0 0 0 0 0 0 0 0 0 0 0 0 0 0
0 0 0 0 0 0 0 0 0 0 0 0 0 0 0 0 0 0 0 0 0 0 0 0 0 0 0 0 0 0 0 0 0 0 0 0 0 0 0 0 0 0 0 0
0 0 0 0 0 0 0 0 0 0 0 0 0 0 0 0 0 0 0 0 0 0 0 0 0 0 0 0 0 0 0 0 0 0 0 0 0 0 0 0 0 0 0 0
0 0 0 0 0 0 0 0 0 0 0 0 0 0 0 0 0 0 0 0 0 0 0 0 0 0 0 0 0 0 0 0 0 0 0 0 0 0 0 0 0 0 0 0
0 0 0 0 0 0 0 0 0 0 0 0 0 0 0 0 0 0 0 0 0 0 0 0 0 0 0 0 0 0 0 0 0 0 0 0 0 0 0 0 0 0 0 0
0 0 0 0 0 0 0 0 0 0 0 0 0 0 0 0 0 0 0 0 0 0 0 0 0 0 0 0 0 0 0 0 0 0 0 0 0 0 0 0 0 0 0 0
0 0 0 0 0 0 0 0 0 0 0 0 0 0 0 0 0 0 0 0 0 0 0 0 0 0 0 0 0 0 0 0 0 0 0 0 0 0 0 0 0 0 0 0
0 0 0 0 0 0 0 0 0 0 0 0 0 0 0 0 0 0 0 0 0 0 0 0 0 0 0 0 0 0 0 0 0 0 0 0 0 0 0 0 0 0 0 0
0 0 0 0 0 0 0 0 0 0 0 0 0 0 0 0 0 0 0 0 0 0 0 0 0 0 0 0 0 0 0 0 0 0 0 0 0 0 0 0 0 0 0 0
0 0 0 0 0 0 0 0 0 0 0 0 0 0 0 0 0 0 0 0 0 0 0 0 0 0 0 0 0 0 0 0 0 0 0 0 0 0 0 0 0 0 0 0
0 0 0 0 0 0 0 0 0 0 0 0 0 0 0 0 0 0 0 0 0 0 0 0 0 0 0 0 0 0 0 0 0 0 0 0 0 0 0 0 0 0 0 0
0 0 0 0 0 0 0 0 0 0 0 0 0 0 0 0 0 0 0 0 0 0 0 0 0 0 0 0 0 0 0 0 0 0 0 0 0 0 0 0 0 0 0 0
0 0 0 0 0 0 0 0 0 0 0 0 0 0 0 0 0 0 0 0 0 0 0 0 0 0 0 0 0 0 0 0 0 0 0 0 0 0 0 0 0 0 0 0
0 0 0 0 0 0 0 0 0 0 0 0 0 0 0 0 0 0 0 0 0 0 0 0 0 0 0 0 0 0 0 0 0 0 0 0 0 0 0 0 0 0 0 0
Wind_Speed
5 5 5 7 8 9 12 11 11 13 17 23 22 19 14 11 11 12 11 9 8 6 4 3 2 3 4 5 4 4 7 9 10 11 12 13 13 13 13 12 12 12 12 10
4 5 6 8 11 12 14 15 18 21 24 20 14 9 9 9 11 12 12 10 9 5 2 2 3 5 6 7 7 7 9 11 12 14 14 14 14 14 14 13 13 12 11 10
4 5 4 8 11 12 8 10 11 14 13 11 13 10 6 8 10 11 10 9 8 5 6 6 7 8 9 10 10 11 11 12 13 15 16 16 16 16 15 13 12 11 9 8
3 4 5 7 3 7 8 8 9 10 12 11 10 3 2 5 8 9 9 8 7 7 8 9 9 10 11 11 12 12 13 13 14 16 17 16 16 15 13 10 9 8 7 7
2 4 8 8 4 4 4 8 6 8 10 8 5 1 1 6 7 7 7 7 7 8 8 9 10 10 12 12 12 13 13 13 13 14 15 15 14 12 10 10 8 6 5 5
3 4 6 5 2 2 2 6 6 6 7 6 3 2 3 5 6 6 7 7 7 8 9 9 9 9 12 11 11 11 11 12 12 12 13 13 12 10 8 8 7 6 5 4
5 5 8 8 3 3 1 6 3 5 5 3 2 2 1 3 5 5 6 6 7 8 8 7 7 9 11 10 10 10 11 11 12 11 11 11 10 8 7 7 6 5 5 3
6 7 10 5 3 4 7 5 4 3 3 3 5 5 4 4 4 4 4 6 6 7 7 7 7 9 10 10 9 10 11 12 11 10 9 9 9 7 7 7 6 5 4 3
8 10 7 3 4 4 2 4 4 3 4 6 6 5 5 4 4 3 4 5 6 7 7 7 7 8 10 8 8 10 11 11 10 10 9 8 8 7 6 5 4 3 2 2
6 8 8 8 5 3 3 4 4 3 5 7 6 7 7 6 5 4 5 5 5 6 7 7 7 8 8 8 8 10 11 9 9 9 8 7 6 5 4 4 3 2 2 1
5 7 7 5 4 3 2 2 1 2 4 6 8 8 7 7 6 5 5 5 5 6 7 7 7 7 7 7 8 10 9 8 7 7 6 6 4 3 4 2 3 3 2 1
6 7 5 6 4 3 4 3 3 4 4 5 7 8 8 7 6 6 7 6 6 7 8 7 7 7 6 6 7 9 8 6 5 5 4 4 4 3 5 3 5 3 3 2
6 7 6 5 2 3 3 3 4 4 6 6 6 7 7 6 6 7 7 7 7 7 7 8 7 7 6 6 7 7 7 6 4 4 3 3 3 3 2 4 6 6 6 6
7 4 4 4 4 3 3 4 4 5 5 6 6 7 8 7 7 8 8 7 7 8 8 7 8 6 5 6 7 7 6 6 5 4 3 3 3 2 2 1 2 2 5 8
8 5 4 1 4 4 4 5 6 5 5 5 6 7 8 8 8 8 8 8 8 8 7 7 7 5 5 7 7 7 6 4 4 3 3 2 2 2 2 2 1 1 2 4
11 7 2 3 5 5 5 6 6 6 6 6 6 7 7 8 8 8 7 8 9 8 7 7 6 5 6 7 7 5 4 7 5 3 3 2 2 2 2 1 1 1 2 3
8 6 4 4 6 7 7 6 7 7 7 8 8 8 9 10 9 8 7 6 6 6 6 7 6 6 6 6 6 4 3 4 7 4 3 2 2 2 1 1 1 2 2 4
9 10 9 8 7 8 9 8 8 9 8 8 10 10 10 11 11 9 8 8 8 7 5 5 6 6 6 5 5 4 3 3 3 3 2 2 2 1 1 1 2 2 2 4
10 9 8 7 7 8 9 9 9 9 9 10 10 10 8 7 8 9 9 10 10 8 5 5 11 7 6 6 6 3 3 3 3 2 2 3 2 1 1 2 2 2 3 3
10 10 8 4 2 5 7 8 9 9 9 11 10 9 9 8 9 9 8 6 5 5 7 7 7 5 5 5 7 3 4 3 3 2 2 1 1 1 2 2 2 2 3 3
11 10 8 4 1 3 6 9 10 10 10 10 11 10 9 9 8 8 8 6 4 7 8 11 6 4 4 5 6 4 3 3 3 2 1 1 1 1 2 2 3 3 3 4
10 8 7 4 2 3 4 6 7 9 10 9 8 9 10 10 9 6 4 4 7 13 7 5 4 6 7 7 4 4 3 3 2 1 0 1 1 2 2 2 3 3 4 4
9 7 6 3 1 2 3 4 6 8 9 10 10 11 11 9 8 8 6 5 6 12 7 5 8 11 10 5 4 3 3 2 1 0 1 1 2 2 2 3 3 4 4 4
8 7 6 3 1 2 3 3 4 5 6 6 7 8 8 8 5 3 4 13 14 12 6 9 13 12 9 4 3 3 2 1 1 1 1 2 2 2 3 3 4 4 5 6
7 6 5 3 1 1 2 3 5 5 6 5 6 7 5 4 5 6 6 9 14 13 6 9 13 11 6 4 3 2 1 1 2 2 2 2 2 3 4 4 4 5 5 5
6 5 4 3 2 2 3 4 4 4 5 6 5 5 5 5 7 7 7 7 10 11 6 5 6 7 4 3 3 2 1 1 2 1 2 3 4 4 4 5 6 5 5 6
6 5 3 3 2 2 3 3 4 5 6 7 6 5 6 7 7 8 8 7 7 6 5 5 4 4 3 3 2 1 1 2 2 2 3 3 4 4 5 6 5 5 6 6
Wind_Direction
247 243 221 220 221 206 207 219 243 261 272 283 293 298 302 306 307 308 307 302 297 287 283 300 346 12 21 18 30 92 119 122 122 118 117 117 119 120 120 120 118 115 112 108
278 264 241 247 240 228 233 237 246 263 275 278 286 301 316 324 322 318 316 316 315 309 335 45 56 58 54 46 47 71 93 102 106 108 107 106 105 105 102 100 102 105 109 112
274 305 327 267 232 205 208 214 218 247 263 292 308 320 335 333 330 328 329 332 343 18 53 61 66 71 71 67 68 76 85 93 99 101 100 99 100 97 96 96 97 97 97 100
284 330 257 245 245 191 213 240 229 250 272 291 301 308 33 356 342 343 350 3 26 52 63 67 74 78 82 82 83 86 88 91 95 97 98 97 97 97 95 94 94 94 97 106
253 284 279 284 253 199 221 274 242 246 274 293 305 228 24 15 8 10 17 31 44 60 74 77 81 88 91 90 90 91 92 93 96 100 103 103 102 101 101 101 100 105 119 136
226 268 262 261 281 137 119 283 257 239 268 289 327 320 329 17 21 28 38 47 57 64 73 78 83 92 93 92 92 92 93 93 94 98 102 105 106 107 109 115 124 130 125 131
222 254 269 258 252 118 229 263 259 231 247 249 196 191 101 57 44 41 49 60 66 70 73 75 82 92 93 92 90 94 95 93 92 94 100 106 108 114 121 117 108 99 92 80
195 219 253 257 152 197 235 268 270 243 207 170 145 129 113 93 74 57 56 65 70 74 70 66 77 90 91 89 93 97 97 96 97 98 102 106 106 99 93 95 93 91 91 77
202 222 240 251 238 256 259 274 273 240 181 154 150 151 138 123 108 85 73 75 78 83 78 69 72 89 97 96 100 101 98 96 93 88 85 88 93 92 85 85 95 104 116 114
253 262 263 266 251 242 246 260 277 235 170 165 160 152 143 137 131 117 101 96 94 93 91 85 84 88 99 105 104 101 96 91 89 88 82 75 79 88 99 110 120 131 126 106
258 278 295 281 236 235 239 252 255 134 159 163 152 152 148 141 136 127 114 103 98 100 101 99 96 93 93 96 101 98 93 92 88 86 90 86 85 102 120 141 146 134 136 155
236 243 249 269 255 211 211 213 182 147 136 148 154 150 141 135 131 127 120 113 109 107 108 105 102 95 86 87 100 107 103 96 94 97 98 101 102 83 76 92 83 95 177 217
260 273 253 256 236 194 198 190 169 158 154 148 144 141 134 130 130 128 126 125 122 118 116 113 108 99 91 91 94 100 109 108 102 104 105 103 96 92 65 32 38 35 21 0
281 272 257 237 221 179 156 135 121 115 124 133 131 132 129 125 130 132 133 131 124 118 116 113 107 100 98 100 100 101 103 111 110 103 100 97 100 106 111 90 28 351 356 357
331 297 262 194 129 134 133 129 126 128 128 125 129 136 138 139 140 136 132 129 121 116 115 113 110 107 104 105 106 108 106 105 104 106 108 111 110 106 93 81 57 343 325 336
316 309 256 175 175 170 162 160 161 160 151 143 140 138 134 131 128 125 127 134 135 134 130 122 118 117 111 109 109 107 115 131 127 122 118 111 99 92 83 63 21 340 322 307
305 292 261 235 214 203 195 186 176 168 160 153 147 137 132 130 128 127 123 115 113 116 121 124 122 118 116 118 118 117 115 128 125 115 111 110 102 90 76 27 324 309 300 309
278 269 261 245 227 210 199 183 172 169 163 153 146 145 148 151 150 144 134 122 112 102 103 116 123 122 123 126 125 126 123 119 118 117 111 102 98 74 31 336 317 315 308 316
315 303 286 251 222 201 190 179 171 162 153 153 158 158 153 146 142 141 139 139 141 142 152 153 143 130 130 141 132 122 123 119 110 103 92 68 72 36 355 328 317 313 311 315
330 330 327 308 211 179 169 158 153 153 156 157 155 150 148 147 146 146 145 147 160 157 155 150 136 131 133 139 131 119 120 116 110 102 92 80 43 343 333 327 322 316 315 310
337 339 344 353 59 129 142 147 153 158 160 161 164 163 156 150 150 150 150 151 157 148 153 152 144 142 141 138 127 117 113 107 105 103 88 40 341 325 320 318 318 319 317 313
337 340 347 3 68 102 123 139 150 155 158 158 152 148 151 154 155 150 148 155 157 160 150 143 147 158 153 135 118 119 114 109 104 100 83 337 314 306 305 309 305 301 298 294
337 338 344 358 64 117 126 143 155 162 166 166 166 167 168 164 163 160 157 155 155 160 149 156 168 159 142 123 119 115 116 119 123 127 306 298 296 298 298 296 288 286 287 285
336 339 340 347 70 125 147 152 145 147 149 151 157 160 157 151 147 141 141 158 165 157 155 168 162 149 133 121 120 122 131 151 205 262 285 294 298 297 287 282 281 279 277 281
328 328 331 333 309 212 162 138 129 134 138 141 145 144 143 142 147 149 148 155 160 152 152 162 153 140 130 128 133 144 170 222 236 241 249 271 276 277 274 272 270 273 277 277
323 322 315 300 275 218 173 160 159 158 154 152 151 144 134 128 136 143 144 146 151 151 143 127 131 134 131 138 147 166 205 275 324 327 279 274 272 273 272 273 276 273 274 274
316 316 316 318 302 224 192 180 173 173 171 168 161 157 150 146 148 149 146 143 141 141 137 133 133 137 143 151 165 196 230 252 266 272 273 269 267 266 269 272 272 273 275 276